FW6724 Weather Reports


Display with metric or nautical units.
time (UTC)temp
F
wind
direction
speed
MPH
gust
MPH
rain 1hr
in
rain 24hr
in
rain mn
in
humidity
%
barometer
mb
20260505223042 66 109 0.0 1.0 0.00 0.00 0.00 60 1011.8
20260505221544 66 0 0.0 3.0 0.00 0.00 0.00 59 1012.0
20260505220042 66 0 0.0 3.0 0.00 0.00 0.00 59 1011.8
20260505214551 66 103 0.0 4.0 0.00 0.00 0.00 57 1011.9
20260505213049 67 0 0.0 3.0 0.00 0.00 0.00 55 1011.8
20260505211537 67 0 0.0 3.0 0.00 0.00 0.00 52 1011.9
20260505210037 68 0 1.0 3.0 0.00 0.00 0.00 47 1011.9
20260505204537 68 35 1.0 3.0 0.00 0.00 0.00 41 1011.7
20260505203044 68 35 0.0 3.0 0.00 0.00 0.00 40 1011.6
20260505201547 68 0 0.0 2.0 0.00 0.00 0.00 40 1011.4
20260505200033 69 32 3.0 7.0 0.00 0.00 0.00 39 1011.3
20260505194534 71 0 0.0 6.0 0.00 0.00 0.00 36 1011.0
20260505193044 71 0 0.0 7.0 0.00 0.00 0.00 34 1010.7
20260505191548 71 196 3.0 12.0 0.00 0.00 0.00 35 1010.6
20260505190041 72 159 5.0 14.0 0.00 0.00 0.00 33 1010.5
20260505184535 72 161 5.0 15.0 0.00 0.00 0.00 32 1010.2
20260505183048 73 167 7.0 18.0 0.00 0.00 0.00 30 1010.2
20260505181532 73 169 11.0 18.0 0.00 0.00 0.00 29 1010.0
20260505180041 74 177 11.0 21.0 0.00 0.00 0.00 28 1009.9
20260505174540 74 139 10.0 18.0 0.00 0.00 0.00 26 1009.7
20260505173040 75 161 8.0 21.0 0.00 0.00 0.00 25 1009.6
20260505171539 76 172 8.0 20.0 0.00 0.00 0.00 23 1009.5
20260505170034 76 149 6.0 19.0 0.00 0.00 0.00 21 1009.6
20260505164537 77 132 8.0 18.0 0.00 0.00 0.00 19 1009.6
20260505163033 77 117 8.0 19.0 0.00 0.00 0.00 19 1009.7
20260505161535 77 226 8.0 19.0 0.00 0.00 0.00 18 1009.7
20260505153038 78 189 8.0 18.0 0.00 0.00 0.00 19 1009.6
20260505151536 79 182 8.0 18.0 0.00 0.00 0.00 19 1009.7
20260505124544 78 154 8.0 17.0 0.00 0.00 0.00 25 1011.1
20260505123104 77 146 8.0 22.0 0.00 0.00 0.00 26 1011.3
20260505121541 79 173 6.0 14.0 0.00 0.00 0.00 21 1011.3
20260505120047 78 319 2.0 11.0 0.00 0.00 0.00 18 1011.3
20260505114549 77 226 2.0 14.0 0.00 0.00 0.00 19 1011.4
20260505113036 76 315 5.0 13.0 0.00 0.00 0.00 20 1011.8
20260505111533 77 167 7.0 17.0 0.00 0.00 0.00 20 1011.8
20260505101539 76 338 4.0 10.0 0.00 0.00 0.00 22 1012.1
20260505100036 75 292 4.0 7.0 0.00 0.00 0.00 23 1012.2
20260505094534 74 201 2.0 8.0 0.00 0.00 0.00 24 1012.3
20260505093044 74 207 2.0 5.0 0.00 0.00 0.00 25 1012.2
20260505091543 73 284 1.0 11.0 0.00 0.00 0.00 27 1012.4
20260505090049 73 287 4.0 8.0 0.00 0.00 0.00 27 1012.4
20260505084536 72 279 2.0 9.0 0.00 0.00 0.00 28 1012.5
20260505083035 71 238 4.0 9.0 0.00 0.00 0.00 29 1012.5
20260505081539 71 237 3.0 9.0 0.00 0.00 0.00 30 1012.4
20260505080047 69 272 6.0 11.0 0.00 0.00 0.00 32 1012.6
20260505074533 69 248 7.0 12.0 0.00 0.00 0.00 32 1012.6
20260505073051 68 290 4.0 8.0 0.00 0.00 0.00 34 1012.5
20260505071535 67 280 5.0 10.0 0.00 0.00 0.00 35 1012.5
20260505070035 65 298 6.0 11.0 0.00 0.00 0.00 40 1012.5
20260505064533 63 325 4.0 8.0 0.00 0.00 0.00 46 1012.6
20260505063034 60 0 0.0 4.0 0.00 0.00 0.00 51 1012.5
20260505061537 59 310 2.0 5.0 0.00 0.00 0.00 52 1012.4
20260505060036 58 314 3.0 8.0 0.00 0.00 0.00 52 1012.2
20260505054536 58 274 2.0 7.0 0.00 0.00 0.00 53 1012.2
20260505053035 57 305 3.0 5.0 0.00 0.00 0.00 54 1012.1
20260505051537 57 305 1.0 5.0 0.00 0.00 0.00 56 1011.9
20260505050117 57 0 1.0 4.0 0.00 0.00 0.00 57 1011.9
20260505041548 58 293 1.0 3.0 0.00 0.00 0.00 58 1011.9
20260505040041 58 319 1.0 6.0 0.00 0.00 0.00 59 1011.8
20260505034532 58 335 3.0 5.0 0.00 0.00 0.00 60 1011.9
20260505033036 59 321 2.0 5.0 0.00 0.00 0.00 59 1011.7
20260505031544 60 313 2.0 5.0 0.00 0.00 0.00 57 1011.9
20260505030040 60 321 4.0 7.0 0.00 0.00 0.00 56 1011.9
20260505024534 60 286 3.0 9.0 0.00 0.00 0.00 60 1011.9
20260505023043 60 289 3.0 7.0 0.00 0.00 0.00 64 1011.9
20260505021540 61 242 1.0 3.0 0.00 0.00 0.00 64 1011.9
20260505020038 61 240 2.0 6.0 0.00 0.00 0.00 64 1011.9
20260505014553 61 279 2.0 6.0 0.00 0.01 0.00 63 1012.2
20260505013041 62 0 0.0 0.0 0.00 0.01 0.00 63 1012.1
20260505011538 63 0 0.0 0.0 0.00 0.01 0.00 62 1012.3
20260505010038 63 0 0.0 0.0 0.00 0.01 0.00 62 1012.4
20260505004539 64 0 0.0 0.0 0.00 0.02 0.00 62 1012.7
20260505003034 64 0 0.0 2.0 0.00 0.02 0.00 62 1012.8
20260505001542 65 0 0.0 3.0 0.00 0.02 0.00 63 1012.7
20260505000044 64 96 0.0 5.0 0.00 0.02 0.00 62 1012.9
20260504234550 64 0 0.0 5.0 0.00 0.02 0.00 61 1012.9
20260504233040 66 0 0.0 3.0 0.00 0.02 0.00 62 1013.0
20260504231536 66 0 0.0 0.0 0.00 0.02 0.00 62 1012.7
20260504230039 66 0 0.0 0.0 0.00 0.02 0.00 61 1012.7
20260504224541 66 0 0.0 2.0 0.00 0.02 0.00 61 1012.8